This demonstration page uses our WeatherBlox Daily Observations layout. Learn more.

Left ArrowRight Arrow

Hourly Observations for May 12, 2022

Temp ( °F °C ) Dew Point ( °F °C ) Humidity (%) Winds ( mph kmh ) Pressure ( in mb ) Visibility ( mi km ) Precip ( " mm )
12:53 am 00:53 Partly Cloudy 74 23.3 67 19.4 79 79 S 16 26 29.91 1013 10 16 0.00 0.00
1:53 am 01:53 Partly Cloudy 74 23.3 68 20 82 82 S 15 24 29.90 1012 10 16 0.00 0.00
2:53 am 02:53 Clear 73 22.8 68 20 84 84 S 20 31 29.88 1012 9 14 0.00 0.00
3:53 am 03:53 Clear 72 22.2 68 20 87 87 S 15 24 29.88 1012 8 13 0.00 0.00
4:53 am 04:53 Clear 71 21.7 67 19.4 87 87 S 15 24 29.87 1012 7 11 0.00 0.00
5:53 am 05:53 Partly Cloudy 71 21.7 67 19.4 87 87 S 14 22 29.87 1012 8 13 0.00 0.00
6:53 am 06:53 Mostly Cloudy 70 21.1 67 19.4 90 90 S 14 22 29.88 1012 8 13 0.00 0.00
7:53 am 07:53 Partly Cloudy 72 22.2 67 19.4 84 84 S 17 28 29.90 1013 7 11 0.00 0.00
8:53 am 08:53 Partly Cloudy 75 23.9 68 20 79 79 S 17 28 29.89 1012 8 13 0.00 0.00
9:53 am 09:53 Sunny 79 26.1 68 20 69 69 S 20 31 29.88 1012 10 16 0.00 0.00
10:53 am 10:53 Mostly Sunny 82 27.8 68 20 63 63 S 17 28 29.86 1011 10 16 0.00 0.00
11:53 am 11:53 Partly Cloudy 85 29.4 68 20 57 57 S 22 35 29.84 1011 10 16 0.00 0.00
12:53 pm 12:53 Partly Cloudy 87 30.6 68 20 53 53 S 22 35 29.82 1010 10 16 0.00 0.00
1:53 pm 13:53 Partly Cloudy 89 31.7 64 17.8 43 43 S 23 37 29.78 1009 10 16 0.00 0.00
2:53 pm 14:53 Partly Cloudy 90 32.2 60 15.6 37 37 S 28 44 29.77 1008 10 16 0.00 0.00
3:53 pm 15:53 Partly Cloudy 91 32.8 56 13.3 31 31 S 24 39 29.74 1007 10 16 0.00 0.00
4:53 pm 16:53 Partly Cloudy 91 32.8 55 12.8 30 30 S 28 44 29.72 1006 10 16 0.00 0.00
5:53 pm 17:53 Mostly Cloudy 89 31.7 56 13.3 33 33 S 28 44 29.72 1006 10 16 0.00 0.00
6:53 pm 18:53 Mostly Cloudy 87 30.6 58 14.4 37 37 S 17 28 29.75 1007 10 16 0.00 0.00
7:53 pm 19:53 Mostly Cloudy 83 28.3 59 15 44 44 S 14 22 29.74 1007 10 16 0.00 0.00
8:53 pm 20:53 Mostly Cloudy 83 28.3 59 15 44 44 SSE 18 30 29.73 1007 10 16 0.00 0.00
9:53 pm 21:53 Mostly Cloudy 81 27.2 62 16.7 53 53 S 18 30 29.73 1007 10 16 0.00 0.00
10:53 pm 22:53 Mostly Cloudy 79 26.1 62 16.7 56 56 S 22 35 29.74 1007 10 16 0.00 0.00
11:53 pm 23:53 Cloudy 78 25.6 64 17.8 62 62 S 16 26 29.75 1008 10 16 0.00 0.00

Powered by AerisWeather